Bellingham, WA
on Sunday, February 10, 2013

Sunday
Previous Day Next Day
Daily Summary
 ActualAverageRecord
Temperature
Mean Temperature °F 40°F  
Max Temperature 44°F 48°F 66°F (1963)
Min Temperature 28°F 33°F 20°F (1989)
Degree Days
Heating Degree Days 29 25  
Month to date heating degree days 250  
Cooling Degree Days 0 0  
Month to date cooling degree days 0  
Year to date cooling degree days 0  
Moisture
Dew Point 31°F   
Average Humidity 94    
Maximum Humidity 100    
Minimum Humidity 65    
Precipitation
Precipitation 0.00 in 0.11 in 1.73 in (1990)
Month to date precipitation 1.15  
Year to date precipitation 5.82  
Wind
Wind Speed 0 mph   
Max Wind Speed 4 mph   
Max Gust Speed mph   
Visibility 3 miles   
Events Fog   

Key: T is trace of precipitation, MM is missing value
Source: NWS Daily Summary
Time(PST)TemperatureDew PointHumidity Pressure Visibility Wind DirectionWind SpeedGust SpeedPrecipitationEvents Conditions
12:00 AM 30.2°F 30.2°F 100% 30.35 in 0.8 miles Calm Calm - N/A   Mist
12:02 AM 30.2°F 30.2°F 100% 30.35 in 0.5 miles Calm Calm - N/A Fog Light Freezing Fog
12:23 AM 30.2°F 30.2°F 100% 30.35 in 0.2 miles Calm Calm - N/A Fog Light Freezing Fog
12:34 AM 30.2°F 30.2°F 100% 30.35 in 0.2 miles Calm Calm - N/A Fog Light Freezing Fog
12:53 AM 32.0°F 30.9°F 96% 30.39 in 0.2 miles Calm Calm - N/A Fog Fog
1:24 AM 30.2°F 30.2°F 100% 30.36 in 0.2 miles Calm Calm - N/A Fog Light Freezing Fog
1:53 AM 30.0°F 30.0°F 100% 30.39 in 0.5 miles Calm Calm - N/A Fog Light Freezing Fog
2:08 AM 30.2°F 30.2°F 100% 30.36 in 1.0 miles Calm Calm - N/A   Mist
2:14 AM 30.2°F 30.2°F 100% 30.36 in 2.0 miles Calm Calm - N/A   Partly Cloudy
2:24 AM 32.0°F 30.2°F 93% 30.36 in 1.8 miles Calm Calm - N/A   Clear
2:36 AM 30.2°F 30.2°F 100% 30.36 in 2.0 miles Calm Calm - N/A   Clear
2:41 AM 30.2°F 30.2°F 100% 30.36 in 0.8 miles Calm Calm - N/A   Mist
2:48 AM 30.2°F 30.2°F 100% 30.36 in 0.2 miles Calm Calm - N/A Fog Light Freezing Fog
2:53 AM 32.0°F 30.9°F 96% 30.39 in 0.2 miles Calm Calm - N/A Fog Fog
3:06 AM 28.4°F 28.4°F 100% 30.36 in 1.0 miles Calm Calm - N/A   Mist
3:13 AM 30.2°F 28.4°F 93% 30.36 in 3.0 miles Calm Calm - N/A   Mostly Cloudy
3:25 AM 30.2°F 28.4°F 93% 30.35 in 2.5 miles Calm Calm - N/A   Mostly Cloudy
3:34 AM 30.2°F 28.4°F 93% 30.35 in 3.0 miles Calm Calm - N/A   Overcast
3:39 AM 30.2°F 28.4°F 93% 30.35 in 1.8 miles Calm Calm - N/A   Overcast
3:42 AM 30.2°F 28.4°F 93% 30.35 in 0.8 miles Calm Calm - N/A   Mist
3:47 AM 30.2°F 30.2°F 100% 30.36 in 0.2 miles Calm Calm - N/A Fog Light Freezing Fog
3:53 AM 30.0°F 30.0°F 100% 30.38 in 0.2 miles Calm Calm - N/A Fog Light Freezing Fog
4:06 AM 30.2°F 28.4°F 93% 30.36 in 0.2 miles Calm Calm - N/A Fog Light Freezing Fog
4:21 AM 28.4°F 28.4°F 100% 30.36 in 0.2 miles North 3.5 mph - N/A Fog Light Freezing Fog
4:28 AM 28.4°F 26.6°F 93% 30.36 in 0.2 miles Calm Calm - N/A Fog Light Freezing Fog
4:53 AM 28.9°F 28.0°F 96% 30.39 in 0.2 miles Calm Calm - N/A Fog Light Freezing Fog
5:34 AM 28.4°F 26.6°F 93% 30.36 in 0.8 miles Calm Calm - N/A   Clear
5:41 AM 28.4°F 28.4°F 100% 30.36 in 2.0 miles Calm Calm - N/A   Clear
5:46 AM 28.4°F 26.6°F 93% 30.36 in 3.0 miles Calm Calm - N/A   Partly Cloudy
5:53 AM 28.9°F 27.0°F 92% 30.39 in 3.0 miles Calm Calm - N/A   Scattered Clouds
5:56 AM 28.4°F 28.4°F 100% 30.36 in 1.5 miles Calm Calm - N/A   Mostly Cloudy
6:00 AM 28.4°F 28.4°F 100% 30.36 in 0.5 miles Calm Calm - N/A Fog Light Freezing Fog
6:19 AM 28.4°F 26.6°F 93% 30.36 in 0.2 miles Calm Calm - N/A Fog Light Freezing Fog
6:29 AM 28.4°F 26.6°F 93% 30.36 in 0.2 miles Calm Calm - N/A Fog Light Freezing Fog
6:53 AM 28.0°F 27.0°F 96% 30.40 in 0.2 miles Calm Calm - N/A Fog Light Freezing Fog
7:09 AM 28.4°F 28.4°F 100% 30.37 in 0.2 miles Calm Calm - N/A Fog Light Freezing Fog
7:39 AM 28.4°F 26.6°F 93% 30.37 in 0.2 miles Calm Calm - N/A Fog Light Freezing Fog
7:53 AM 28.9°F 28.0°F 96% 30.40 in 0.2 miles Calm Calm - N/A Fog Light Freezing Fog
8:03 AM 28.4°F 28.4°F 100% 30.37 in 0.2 miles Calm Calm - N/A Fog Light Freezing Fog
8:53 AM 30.9°F 30.9°F 100% 30.41 in 0.2 miles Calm Calm - N/A Fog Light Freezing Fog
9:53 AM 32.0°F 32.0°F 100% 30.41 in 0.2 miles Calm Calm - N/A Fog Fog
10:16 AM 33.8°F 33.8°F 100% 30.38 in 0.2 miles Calm Calm - N/A Fog Fog
10:51 AM 33.8°F 33.8°F 100% 30.38 in 0.2 miles Calm Calm - N/A Fog Fog
10:53 AM 35.1°F 35.1°F 100% 30.41 in 0.2 miles Calm Calm - N/A Fog Fog
11:53 AM 37.0°F 37.0°F 100% 30.40 in 0.2 miles Calm Calm - N/A Fog Fog
12:05 PM 37.4°F 37.4°F 100% 30.37 in 0.2 miles Calm Calm - N/A Fog Fog
12:13 PM 37.4°F 37.4°F 100% 30.36 in 0.8 miles Calm Calm - N/A   Overcast
12:41 PM 39.2°F 37.4°F 93% 30.35 in 6.0 miles Calm Calm - N/A   Scattered Clouds
12:53 PM 39.9°F 37.0°F 89% 30.38 in 10.0 miles Calm Calm - N/A   Clear
1:53 PM 44.1°F 36.0°F 73% 30.37 in 10.0 miles Calm Calm - N/A   Clear
2:53 PM 44.1°F 35.1°F 71% 30.37 in 10.0 miles Calm Calm - N/A   Clear
3:53 PM 44.1°F 33.1°F 65% 30.37 in 10.0 miles South 3.5 mph - N/A   Partly Cloudy
4:53 PM 41.0°F 36.0°F 82% 30.36 in 10.0 miles Calm Calm - N/A   Clear
5:53 PM 37.0°F 35.1°F 93% 30.37 in 10.0 miles Calm Calm - N/A   Partly Cloudy
6:53 PM 37.9°F 35.1°F 89% 30.37 in 10.0 miles Calm Calm - N/A   Overcast
7:53 PM 39.0°F 36.0°F 89% 30.37 in 10.0 miles Calm Calm - N/A   Overcast
8:53 PM 39.9°F 36.0°F 86% 30.36 in 10.0 miles Calm Calm - N/A   Overcast
9:43 PM 41.0°F 33.8°F 76% 30.32 in 10.0 miles South 3.5 mph - N/A   Overcast
9:53 PM 39.9°F 36.0°F 86% 30.35 in 10.0 miles South 3.5 mph - N/A   Overcast
10:53 PM 41.0°F 37.0°F 86% 30.35 in 9.0 miles Calm Calm - N/A   Overcast
11:31 PM 39.2°F 37.4°F 93% 30.33 in 5.0 miles Calm Calm - N/A   Overcast
11:53 PM 39.2°F 39.2°F 100% 30.33 in 5.0 miles Calm Calm - N/A   Overcast
Moon Phase
Feb. 10 Feb. 17 Feb. 25 Mar. 04 Mar. 11
Sunrise:07:25 AM (PST) Moon Rise:07:12 AM (PST)2/10
Sunset:05:23 PM (PST) Moon Set:06:29 PM (PST)2/10

Copyright © 2014 The Weather Underground, Inc.